This is the latest recevied weather packets stored in our database for station/object LZ1HCO-25. If no packets are shown the sender has not sent any weather packets the latest 10 day(s).
| Time | Temp. | Humidity | Pressure | Rain* | Wind** | Luminosity | Snow |
|---|---|---|---|---|---|---|---|
| 1777744188 | 8.89° C | 99% | 973 hPa | - | - | 0 W/m² | - |
| 1777743877 | 9.44° C | 99% | 973 hPa | - | - | 0 W/m² | - |
| 1777743566 | 9.44° C | 99% | 973 hPa | - | - | 0 W/m² | - |
| 1777743254 | 9.44° C | 99% | 973 hPa | - | - | 0 W/m² | - |
| 1777742943 | 9.44° C | 99% | 973 hPa | - | - | 0 W/m² | - |
| 1777742631 | 10° C | 99% | 973 hPa | - | - | 0 W/m² | - |
| 1777742320 | 10.56° C | 99% | 973 hPa | - | - | 0 W/m² | - |
| 1777742009 | 10° C | 99% | 973 hPa | - | - | 0 W/m² | - |
| 1777741697 | 10.56° C | 99% | 973 hPa | - | - | 0 W/m² | - |
| 1777741386 | 10.56° C | 99% | 973 hPa | - | - | 0 W/m² | - |
| 1777741074 | 11.11° C | 99% | 972 hPa | - | - | 0 W/m² | - |
| 1777740763 | 11.67° C | 84% | 972 hPa | - | - | 0 W/m² | - |
| 1777740452 | 11.67° C | 79% | 972 hPa | - | - | 0 W/m² | - |
| 1777740140 | 12.22° C | 70% | 972 hPa | - | - | 0 W/m² | - |
| 1777739829 | 12.78° C | 63% | 972 hPa | - | - | 0 W/m² | - |
| 1777739518 | 13.33° C | 62% | 972 hPa | - | - | 0 W/m² | - |
| 1777739206 | 12.78° C | 63% | 972 hPa | - | - | 0 W/m² | - |
| 1777738895 | 13.33° C | 68% | 972 hPa | - | - | 0 W/m² | - |
| 1777738584 | 13.33° C | 68% | 972 hPa | - | - | 0 W/m² | - |
| 1777738272 | 13.33° C | 71% | 972 hPa | - | - | 0 W/m² | - |
| 1777737961 | 13.89° C | 68% | 972 hPa | - | - | 0 W/m² | - |
| 1777737650 | 13.89° C | 66% | 972 hPa | - | - | 0 W/m² | - |
| 1777737338 | 13.89° C | 66% | 972 hPa | - | - | 0 W/m² | - |
| 1777737027 | 13.89° C | 62% | 972 hPa | - | - | 0 W/m² | - |
| 1777736715 | 13.89° C | 63% | 972 hPa | - | - | 0 W/m² | - |
* Rain since midnight (hover to see other rain measurements)
** Current wind speed in m/s (hover to see current wind gust speed)